Location: Camaret
(48.2753°N, 4.5961°W)
Time: 04:13:17
(UTC+00:00)

Cosmos 1825 - Pass Details

Date: 29 October 2020
Orbit: 501 x 508 km, 82.5° (Epoch: 01 December)

Event Time Altitude Azimuth Distance (km) Brightness Sun altitude
Rises 18:44:02 0° 353° (N) 2,627 5.9 -17.2°
Reaches altitude 10° 18:46:12 10° 357° (N) 1,735 4.9 -17.6°
Maximum altitude 18:49:58 60° 78° (ENE) 585 2.1 -18.2°
Enters shadow 18:51:48 27° 150° (SSE) 988 3.3 -18.5°
